Torna al catalogo

DELTA 1 DEB

AttivoSSO
NORAD 21292·DEBRIS·🇺🇸 United States

Lanciato Jun 12, 1975 da Vandenberg Space Force Base

Loading…

Prossimi Passaggi (prossime 24 ore)

TLE

AggiornatoSource: Space-Track

Epoca: Sep 14, 2026, 11:34 UTC

1 21292U 75052AD  26257.48202812 -.00000006  00000-0  45918-4 0  9992
2 21292  99.7613 132.8109 0222345 214.0382 270.2052 13.58671502749562

Traccia DELTA 1 DEB in tempo reale con AllMySat

Download on the App Store